Location: Minneapolis
(45.0000°N, 93.0000°W)
Time: 10:11:10

Envisat - Pass Details

Date: 12 March 2018
Orbit: 764 x 766 km, 98.2° (Epoch: 23 March)

Event Time Altitude Azimuth Distance (km) Brightness Sun altitude
Rises 20:28:23 0° 163° (SSE) 3,216 6.0 -13.9°
Reaches altitude 10° 20:30:40 10° 163° (SSE) 2,294 5.2 -14.3°
Maximum altitude 20:35:44 85° 75° (ENE) 774 2.9 -15.2°
Drops below altitude 10° 20:40:50 10° 348° (NNW) 2,310 5.8 -16.0°
Sets 20:43:09 0° 348° (NNW) 3,241 6.6 -16.4°
